Location: Warszawa
(52.2322°N, 21.0083°E)
Time: 00:01:19
(UTC+02:00)

ISS - Pass Details

Date: 01 April 2019
Orbit: 408 x 410 km, 51.6° (Epoch: 22 April)

Event Time Altitude Azimuth Distance (km) Brightness Sun altitude
Rises 21:47:23 0° 282° (WNW) 2,340 1.0 -22.4°
Reaches altitude 10° 21:49:40 10° 269° (W) 1,475 -0.4 -22.7°
Enters shadow 21:51:18 21° 246° (WSW) 986 -1.7 -22.9°
